Regional Weather Roundup
Issued by NWS Lake Charles, LA

Home | Current Version | Previous Version | Text Only | Print | Product List | Glossary On
Versions: 1 2 3 4 5 6 7 8 9 10 11 12 13 14 15 16 17 18 19 20 21 22 23 24 25 26 27 28 29 30 31 32 33 34 35 36 37 38 39 40 41 42 43 44 45 46 47 48 49 50
000
ASUS44 KLCH 280010
RWRLCH
RWRLCH
REGIONAL WEATHER ROUNDUP
NATIONAL WEATHER SERVICE LAKE CHARLES LA
700 PM CDT FRI MAR 27 2015

Note: "fair" indicates few or no clouds below 12,000 feet with no
significant weather and/or obstructions to visibility.


ACROSS SOUTHEAST TEXAS

CITY           SKY/WX    TMP DP  RH WIND       PRES   REMARKS
BEAUMONT       CLEAR     73  41  31 NW8       30.05S
BEAUMONT CITY    N/A     72  44  36 NW7       30.07R
ORANGE         CLEAR     73  32  22 NW5       30.07R
JASPER         CLEAR     74  40  28 NW8       30.09R
$$

ACROSS CENTRAL LOUISIANA

CITY           SKY/WX    TMP DP  RH WIND       PRES   REMARKS
LEESVILLE      CLEAR     68  39  34 VRB6      30.06R
FULLERTON        N/A     69  37  30 MISG      30.04R
ALEXANDRIA INT CLEAR     66  36  32 NW15      30.05R
ESLER FIELD    CLEAR     67  35  30 N9        30.05R
DERIDDER         N/A     70  38  31 CALM      30.07R
OAKDALE        MOCLDY    69  40  34 N8        30.06R
OPELOUSAS        N/A     68  42  38 N13       30.04R
$$

ACROSS SOUTHWEST AND SOUTH CENTRAL LOUISIANA

CITY           SKY/WX    TMP DP  RH WIND       PRES   REMARKS
SULPHUR        CLEAR     72  40  31 NW7       30.06R
LAKE CHARLES   CLEAR     73  39  29 NW8       30.05R
CHENNAULT INT  CLEAR     72  39  30 NW10      30.05S
CAMERON PHI    NOT AVBL
DEQUINCY         N/A     71  40  32 NW6       30.05R
JENNINGS         N/A     70  45  41 W7        30.05R
LAFAYETTE      CLEAR     70  41  34 NW9       30.03R
NEW IBERIA     CLEAR     71  40  32 W10       30.04R
ABBEVILLE        N/A     68  43  41 W7        30.04S
PATTERSON      CLEAR     66  45  45 W14G20    30.04S
SALT POINT       N/A     63  54  72 W7        30.04R
$$

SELECTED SITES ACROSS THE REGION

CITY           SKY/WX    TMP DP  RH WIND       PRES   REMARKS
HOUSTON BUSH   PTCLDY    76  38  25 W10G17    30.07R
HOUSTON HOBBY  PTCLDY    77  34  21 NW12      30.07S
GALVESTON      CLEAR     73  49  42 W8        30.08S
COLLEGE STAT   CLEAR     74  41  30 N8        30.09R
CONROE         CLEAR     74  38  27 N5        30.08R
HUNTSVILLE     CLEAR     72  41  32 N5        30.09R
LUFKIN         CLEAR     74  37  26 N7        30.08R
SHREVEPORT     PTCLDY    64  39  39 W10       30.09S
MONROE         CLEAR     58  42  55 E9        30.10R
NATCHEZ MS     CLEAR     59  37  44 N13G20    30.07R
BATON ROUGE    CLEAR     68  39  34 NW5       30.02R
N.O. INTL ARPT PTCLDY    65  39  38 NW10      30.03R
SLIDELL        CLEAR     66  38  35 NW7       30.01R
$$

MARINE REPORTS

STATION/POSITION TIME  TEMP    WIND        PRES    VSBY  WAVE
                       AIR SEA DIR/SP/G                  HT/PER
                 (UTC) (F)     (DEG/KT/KT) (MB)    (MI)  (FT/S)
BUOY 30 S HIGH I 2350   65 65  210/ 14/ 16 1018.3F         2/ 3
SEA RIM ST PARK  2300   66     230/ 15/ 17 1018.5F
PORT ARTHUR      2300          340/  8/ 13 1017.7S
SABINE PASS N    2300   70 67  270/  5/ 11 1018.1R
TEXAS POINT      NOT AVBL
CALCASIEU PASS   2300   66 68  250/ 12/ 17   N/A
LK CHARLES BEACH 2300   74 69              1017.3F
MARSH ISLAND     NOT AVBL
FRESH WATER LOCK 2300   64 68  230/ 12/ 17 1017.6S
AMERADA PASS     2300   64 61  240/  4/ 10 1017.3R
$$



USA.gov is the U.S. government's official web portal to all federal, state and local government web resources and services.